Forside
METAR-TAF:

METAR-TAF

Lufthavne :

Toledo Suburban Airport

Lambertville, Michigan, USA

Breddekreds: 41-44-09N, længdekreds: 083-39-19W, højde: 204 m

Aktuelle vejr

Denne rapport blev lavet for 9 minutter siden, kl. 01:56 UTC
Vind 4 kt fra syd
Temperatur 26°C
Fugtighed 61%
Tryk 1014 hPa
Sigt: 16.1 km
skyfri

METAR: KDUH 250156Z AUTO 19004KT 10SM CLR 26/18 A2994 RMK AO2 T02560180

Tid: 22:05 (02:05 UTC)


TAF: fraværende

Vejrobservationer og prognoser fra mere end 4000 lufthavne (METAR og TAF).

De gule og røde prikker repræsenterer de meteorologiske stationer.

Flyt musen over at se navnet på stationen.

Så klik over at se vejr observationer og prognoser.

At skifte det kort: Klik på de grønne knapper med et sort kors for at zoome ind; på den grønne knap med en bindestreg for at zoome ud; eller på de grønne pile for tilstødende kort.


METAR-TAF: